thismight.be alexa rank chart, thismight.be alexa rank daily changes

thismight.be alexa rank chart, thismight.be alexa rank daily changes

thismight.be
Actual rank:
286 812

RANK HISTORY

Date Rank Diff
2017/05/25 286 812 +851
2017/05/24 285 961 -1 271
2017/05/23 287 232 +564
2017/05/22 286 668 -1 583
2017/05/21 288 251 -4 314
2017/05/20 292 565 -2 210
2017/05/19 294 775 +851
2017/05/18 293 924 -2 304
2017/05/17 296 228 -5 472
2017/05/16 301 700 -826
2017/05/15 302 526 -3 268
2017/05/14 305 794 +2 652
2017/05/13 303 142 +489
2017/05/12 302 653 +164
2017/05/11 302 489 +7 547
2017/05/10 294 942 +6 233
2017/05/09 288 709 +2 793
2017/05/08 285 916 +2 223
2017/05/07 283 693 -300
2017/05/06 283 993 -5 693
2017/05/05 289 686 +2 205
2017/05/04 287 481 +6 100
2017/05/03 281 381 +7 807
2017/05/02 273 574 -5 258
2017/05/01 278 832 -3 103
2017/04/30 281 935 +159
2017/04/29 281 776 +617
2017/04/28 281 159 +3 150
2017/04/27 278 009 +3 260
2017/04/26 274 749 +6 603
2017/04/25 268 146 +2 268
2017/04/24 265 878 -2 347
2017/04/23 268 225 -1 493
2017/04/22 269 718 +2 825
2017/04/21 266 893 +1 858
2017/04/20 265 035 +6 041
2017/04/19 258 994 +1 562
2017/04/18 257 432 +1 554
2017/04/17 255 878 +3 598
2017/04/16 252 280 +648
2017/04/15 251 632 -121
2017/04/14 251 753 +846
2017/04/13 250 907 +1 180
2017/04/12 249 727 -403
2017/04/11 250 130 -5 309
2017/04/10 255 439 -3 741
2017/04/09 259 180 -5 646
2017/04/08 264 826 -6 036
2017/04/07 270 862 +1 148
2017/04/06 269 714 +1 931
2017/04/05 267 783 +2 793
2017/04/04 264 990 -8 377
2017/04/03 273 367 -12 696
2017/04/02 286 063 -2 327
2017/04/01 288 390 +1 146
2017/03/31 287 244 -2 083
2017/03/30 289 327 +111
2017/03/29 289 216 -5 571
2017/03/28 294 787 -9 792
2017/03/27 304 579 -10 465
2017/03/26 315 044

WIDGET FOR YOUR SITE

DOMAINS WITH THE NEAREST RANK

Domain Rank
filmscanner.info 286 807
sharedb.info 286 808
city-sightseeing.com 286 809
java.sx 286 810
bloggertemplates20.com 286 811
thismight.be 286 812
wdbloog.com 286 813
turboforex.com 286 814
dusoyun.com 286 815
lamaisonduteeshirt.com 286 816
threeifbyspace.net 286 817

DOMAINS WITH THE NEAREST RANK BY TLD .be

Domain Rank
dewatergroep.be 284 280
clubracer.be 284 965
centerparcs.be 285 189
dmlights.be 285 549
meteo-bruxelles.be 285 682
thismight.be 286 812
urlmetrics.be 287 214
bingoal.be 287 742
skoda.be 288 122
notaris.be 288 322
kortrijk.be 288 564